Change the Weather History Date:

Sunday, November 4, 2012

  Actual Average Record
Temperature  
Mean Temperature 56 °F -  
Max Temperature 59 °F 63 °F 68 °F (2004)
Min Temperature 53 °F 53 °F 48 °F (1996)
Degree Days  
Heating Degree Days 9    
Growing Degree Days 6 (Base 50)    
Moisture  
Dew Point 44 °F    
Average Humidity 65    
Maximum Humidity 82    
Minimum Humidity 55    
Precipitation  
Precipitation 0.00 in - - ()
Sea Level Pressure  
Sea Level Pressure 29.99 in    
Wind  
Wind Speed 20 mph ()    
Max Wind Speed 28 mph    
Max Gust Speed -    
Visibility 6.2 miles    
Events Rain    
Averages and records for this station are not official NWS values.
T = Trace of Precipitation, MM = Missing Value Source: Averaged Metar Reports

Daily Weather History Graph

Daily Weather History Graph

Search for Another Location

Airport or City:

Trip Planner

Search our weather history database for the weather conditions in past years. The results will help you decide how hot, cold, wet, or windy it might be!

Date:

Astronomy

Nov. 04, 2012 Rise Set
Actual Time 6:12 AM NZDT 7:57 PM NZDT
Civil Twilight 5:44 AM NZDT 8:25 PM NZDT
Nautical Twilight 5:10 AM NZDT 8:59 PM NZDT
Astronomical Twilight 4:34 AM NZDT 9:35 PM NZDT
Moon No Moon Rise 9:50 AM NZDT (11/4)
Length of Visible Light 14h 40m
Length of Day
13h 44m
Waning Gibbous, 78% of the Moon is Illuminated
Nov 4
Waning Gibbous
Nov 7
Last Quarter
Nov 14
New
Nov 21
First Quarter
Nov 29
Full

Hourly Weather History & Observations

Time (NZDT) Temp. Dew Point Humidity Pressure Visibility Wind Dir Wind Speed Gust Speed Precip Events Conditions
12:00 AM 55.4 °F 42.8 °F 63% 29.83 in 6.2 mi SW 21.9 mph - N/A   Mostly Cloudy
1:00 AM 55.4 °F 42.8 °F 63% 29.86 in 6.2 mi SW 20.7 mph - N/A   Mostly Cloudy
2:00 AM 55.4 °F 44.6 °F 67% 29.86 in 6.2 mi SW 20.7 mph - N/A   Mostly Cloudy
3:00 AM 53.6 °F 48.2 °F 82% 29.86 in 6.2 mi SW 24.2 mph - N/A   Scattered Clouds
4:00 AM 55.4 °F 42.8 °F 63% 29.86 in 6.2 mi SW 25.3 mph - N/A   Partly Cloudy
5:00 AM 53.6 °F 42.8 °F 67% 29.89 in 6.2 mi SW 26.5 mph - N/A Rain Light Rain Showers
6:00 AM 53.6 °F 42.8 °F 67% 29.92 in 6.2 mi SW 27.6 mph - N/A   Scattered Clouds
7:00 AM 53.6 °F 39.2 °F 58% 29.95 in 6.2 mi SW 19.6 mph - N/A   Scattered Clouds
8:00 AM 53.6 °F 41.0 °F 62% 29.98 in 6.2 mi SW 21.9 mph - N/A   Scattered Clouds
9:00 AM 53.6 °F 44.6 °F 72% 30.01 in 6.2 mi SW 26.5 mph - N/A   Scattered Clouds
10:00 AM 57.2 °F 42.8 °F 59% 30.01 in 6.2 mi SSW 23.0 mph - N/A   Scattered Clouds
11:00 AM 55.4 °F 44.6 °F 67% 30.01 in 6.2 mi SW 25.3 mph - N/A   Mostly Cloudy
12:00 PM 59.0 °F 42.8 °F 55% 30.01 in 6.2 mi SW 24.2 mph - N/A   Scattered Clouds
1:00 PM 57.2 °F 44.6 °F 63% 30.01 in 6.2 mi SSW 21.9 mph - N/A   Mostly Cloudy
2:00 PM 57.2 °F 46.4 °F 67% 30.04 in 6.2 mi SSW 20.7 mph - N/A   Mostly Cloudy
3:00 PM 57.2 °F 41.0 °F 55% 30.04 in 6.2 mi SW 21.9 mph - N/A   Mostly Cloudy
4:00 PM 57.2 °F 46.4 °F 67% 30.04 in 6.2 mi SW 23.0 mph - N/A   Mostly Cloudy
5:00 PM 59.0 °F 42.8 °F 55% 30.04 in 6.2 mi SW 23.0 mph - N/A   Mostly Cloudy
6:00 PM 55.4 °F 46.4 °F 72% 30.06 in 6.2 mi SW 20.7 mph - N/A   Mostly Cloudy
7:00 PM 55.4 °F 46.4 °F 72% 30.06 in 6.2 mi SW 21.9 mph - N/A   Mostly Cloudy
8:00 PM 55.4 °F 44.6 °F 67% 30.09 in 6.2 mi SW 19.6 mph - N/A   Mostly Cloudy
9:00 PM 53.6 °F 42.8 °F 67% 30.09 in 6.2 mi SW 19.6 mph - N/A   Scattered Clouds
10:00 PM 53.6 °F 42.8 °F 67% 30.12 in - SW 18.4 mph - N/A   Clear
11:00 PM 53.6 °F 42.8 °F 67% 30.15 in - SW 16.1 mph - N/A   Clear